Погода в Эгвекиноте

Россия / Чукотский автономный округ     66°19′17″N   179°07′11″W
темп.,
°C
ветер,
м/с
пор.,
м/с
влажн.,
%
обл.,
%
осадки,
мм/ч
давл.,
гПа
погр.,
м
21 апреля, ср
ср2100:00−12с218445 0.0 104110
03:00−13ссз228267 0.0 104110
06:00−12с11818 0.0 104010
09:00−8ю118232 0.0 104063
12:00−6ю11806 0.0 104099
15:00−5ю117990 0.0 1039103
18:00−8всв118879 0.0 103810
21:00−11с228533 0.0 103810
22 апреля, чт
чт2200:00−12с32815 0.0 103711
03:00−13ссз22779 0.0 103610
06:00−10с227160 0.0 103511
09:00−4сз006495 0.0 103342
12:00−1ююв0072100 0.0 103157
15:000св0083100 0.0 102925
18:00−2с1179100 0.0 102710
21:00−5с335689 0.0 102610
23 апреля, пт
пт2300:00−4ссз3347100 0.0 102410
03:00−4ссз334598 0.0 102210
06:00−3ссв325355 0.0 102110
09:00+1ссз1170100 0.0 101921
12:00+1вюв009382 0.0 101821
15:00+1всв1191100 0.0 101710
18:00−2сз1184100 0.0 101710
21:00−5ссв2177100 0.0 101610
24 апреля, сб
сб2400:00−4с2272100 0.0 101610
03:00−5с2268100 0.0 101510
06:00−3с2269100 0.0 101511
09:00+1св1179100 0.0 101422
12:00+1ссв119391 0.0 101416
15:00+1ссв1194100 0.0 101315
18:00+1ссв228589 0.0 101312
21:00−2ссв337995 0.0 101214
25 апреля, вс
вс2500:00−3ссв337798 0.0 101214
03:00−6ссв117980 0.0 101210
06:00−5сз1183100 0.0 101211
09:00−1ююз118385 0.0 1012118
12:00−1ююз119874 0.1 1013143
15:000ююз119887 0.1 1012107
18:00−1сз1195100 0.1 101212
21:00−5с229423 0.0 101210